Location: Fours
(44.3167°N, 6.7000°E)
Time: 23:19:17
(UTC+00:00)

Cosmos 1953 - Pass Details

Date: 16 October 2021
Orbit: 537 x 557 km, 82.5° (Epoch: 26 November)

Event Time Altitude Azimuth Distance (km) Brightness Sun altitude
Rises 18:10:41 0° 190° (S) 2,718 6.0 -15.7°
Reaches altitude 10° 18:12:50 10° 192° (SSW) 1,831 5.1 -16.1°
Maximum altitude 18:16:52 78° 279° (W) 576 2.4 -16.8°
Drops below altitude 10° 18:20:57 10° 6° (N) 1,853 5.0 -17.5°
Sets 18:23:09 0° 8° (N) 2,754 5.9 -17.9°
